Total_Precipitation_Accumulation
0.26 0.66 1.36 4.06 7.66 5.55 4.78 2.87 1.31 1.08 0.55 0.34 0.27 0.40 0.79 1.76 1.91 2.19 0.50 0.39 0.21 0.28 0.67 1.68 2.76 1.58 1.31 1.32 1.23 1.05 0.76 1.11 1.73 1.63 0.86 0.67 0.95 1.01 0.74 0.70 0.77 0.74 0.97 1.14 1.05 0.99 1.14 0.93 0.78
0.29 0.71 2.50 6.69 6.48 6.68 4.88 2.89 2.05 1.04 0.54 0.30 0.21 0.43 0.45 0.41 0.17 0.14 0.33 0.33 0.14 0.17 0.50 0.94 1.95 1.69 0.94 1.14 1.18 1.22 0.87 0.74 1.59 1.76 1.61 1.29 1.20 0.98 0.88 0.92 0.96 0.84 0.94 0.99 1.06 0.87 0.88 0.91 1.18
0.47 1.18 6.44 10.09 7.31 5.16 3.40 1.61 0.92 0.67 0.47 0.35 0.40 0.35 0.25 0.16 0.05 0.09 0.04 0.08 0.11 0.15 0.33 0.67 1.16 1.49 1.09 0.99 0.89 1.13 1.16 0.94 1.41 1.49 1.83 1.50 1.04 0.96 1.18 1.11 0.96 0.73 0.75 0.73 0.75 0.73 0.72 0.83 0.91
1.04 4.38 5.73 5.45 4.72 2.25 1.42 1.64 1.03 0.78 0.55 0.48 0.50 0.33 0.20 0.10 0.04 0.05 0.03 0.08 0.16 0.17 0.29 0.75 1.17 1.14 0.79 1.08 1.11 0.96 1.02 1.05 1.44 1.59 1.47 1.26 1.43 1.09 0.62 0.87 0.67 0.57 0.54 0.64 0.63 0.60 0.73 1.01 0.90
2.12 5.55 6.28 5.23 4.22 1.75 1.07 0.95 0.95 0.67 0.57 0.43 0.26 0.27 0.26 0.11 0.02 0.02 0.05 0.13 0.25 0.31 0.50 0.94 1.85 1.31 1.08 1.15 1.12 1.18 1.10 1.11 1.39 1.19 1.10 1.60 1.19 0.70 0.66 0.69 0.49 0.44 0.57 0.61 0.50 0.72 1.08 0.88 0.69
2.76 5.76 5.10 3.70 3.71 2.24 2.23 1.80 1.32 0.90 0.87 0.48 1.12 0.20 0.34 0.24 0.04 0.05 0.11 0.27 0.15 0.66 0.30 0.64 1.32 1.48 1.15 0.95 0.96 1.46 1.13 1.10 1.27 1.39 1.75 1.37 0.81 0.59 0.43 0.40 0.31 0.33 0.42 0.50 0.46 0.54 0.80 0.79 0.69
3.67 5.97 3.32 2.97 3.07 3.48 2.45 1.81 1.57 0.95 0.85 0.36 0.41 0.82 0.47 0.41 0.19 0.11 0.09 0.09 0.16 0.85 0.37 0.77 0.91 1.21 1.09 1.10 1.37 1.57 1.27 1.26 1.55 1.76 1.35 0.87 0.74 0.46 0.50 0.46 0.46 0.51 0.70 0.81 0.64 0.66 0.79 0.92 0.85
3.26 5.99 3.64 3.28 3.60 5.94 2.19 1.68 1.38 0.92 0.90 0.34 0.19 0.81 0.54 0.21 0.26 0.09 0.13 0.17 0.34 0.57 0.48 0.64 1.04 1.26 0.94 0.75 1.17 1.38 1.35 1.51 1.28 0.84 0.73 0.84 0.63 0.57 0.81 1.15 1.22 1.32 1.31 1.28 1.03 1.11 1.04 1.02 1.14
1.31 5.86 5.12 3.98 3.83 4.93 2.81 2.81 1.88 1.39 0.61 0.36 0.27 0.25 0.06 0.04 0.04 0.14 0.26 0.44 0.78 0.79 0.58 0.27 0.38 0.57 0.73 0.50 0.75 1.08 1.03 1.35 1.12 1.15 1.31 1.86 1.21 1.78 3.34 1.83 1.50 1.43 1.58 1.46 1.89 1.68 1.32 1.17 1.27
1.44 4.68 4.50 3.56 2.24 3.04 2.23 2.32 1.84 1.99 1.26 1.12 0.49 0.17 0.06 0.03 0.04 0.07 0.18 0.23 0.32 0.59 0.58 0.31 0.44 0.31 0.51 0.38 0.70 0.96 1.02 1.12 1.23 1.23 2.22 2.29 2.04 4.89 2.35 1.59 1.43 1.34 1.56 2.29 2.18 2.08 1.86 1.94 2.25
1.72 3.61 2.80 3.66 2.91 1.37 1.00 1.00 1.13 2.73 1.65 0.75 0.33 0.18 0.07 0.04 0.11 0.09 0.17 0.20 0.38 1.29 1.18 1.53 0.54 0.70 0.82 0.62 0.83 0.62 0.52 0.93 0.60 0.95 1.16 1.24 1.90 2.22 1.91 1.81 2.49 2.32 2.29 2.32 1.68 2.56 1.96 1.69 2.05
1.55 1.03 1.43 1.66 2.10 1.79 2.25 0.96 1.03 1.71 2.00 0.44 0.26 0.15 0.04 0.15 0.27 0.06 0.14 0.15 0.32 0.60 0.59 0.70 0.45 0.80 0.65 0.67 0.80 0.32 0.33 0.52 0.31 0.43 0.62 1.06 1.26 1.74 2.41 1.98 3.16 2.45 2.31 3.04 2.81 2.81 1.26 0.98 1.14
0.51 0.36 0.32 0.68 0.96 1.28 2.05 1.37 1.56 1.46 0.68 0.57 0.29 0.26 0.11 0.03 0.04 0.08 0.16 0.32 0.55 0.61 0.65 0.51 0.38 0.69 1.33 1.36 0.57 0.45 0.50 0.54 0.19 0.23 0.88 1.81 1.47 1.47 2.23 2.63 2.23 2.71 2.61 3.69 2.78 2.46 1.52 1.27 0.96
0.44 0.20 0.45 0.52 0.62 1.09 1.70 1.32 1.65 1.37 0.58 0.69 0.25 0.16 0.11 0.04 0.06 0.09 0.07 0.15 0.33 0.48 0.47 0.24 0.22 0.31 0.89 0.60 0.44 0.62 0.93 0.47 0.49 0.30 0.79 0.83 1.29 1.49 3.02 3.56 3.27 2.61 2.25 2.31 2.42 3.39 2.52 1.81 0.93
0.43 0.38 0.79 0.88 0.69 1.08 1.58 3.15 1.64 1.20 1.22 0.52 0.36 0.28 0.18 0.21 0.17 0.14 0.11 0.12 0.26 0.42 0.45 0.27 0.25 0.28 0.44 0.51 0.53 0.91 1.01 0.47 0.38 0.50 0.47 0.88 1.53 1.91 2.97 2.98 2.81 2.49 2.37 1.73 1.76 2.35 3.71 2.39 1.46
1.24 1.86 2.27 1.70 0.91 1.00 1.72 2.73 2.16 1.29 1.16 0.90 0.36 0.34 0.28 0.35 0.36 0.43 0.24 0.21 0.26 0.46 0.86 1.01 0.36 0.23 0.28 0.71 0.73 0.88 1.40 1.07 0.78 0.72 0.41 0.94 1.27 2.33 2.87 3.30 2.79 3.02 2.21 2.38 2.37 1.90 2.73 3.01 2.58
1.24 2.24 2.14 1.71 1.07 1.03 1.70 2.54 2.13 1.60 0.95 1.44 0.54 0.50 0.51 0.49 0.54 0.48 0.50 0.33 0.33 0.58 0.83 0.56 0.26 0.20 0.33 0.78 1.13 1.07 1.01 0.83 0.62 0.66 0.71 0.77 1.09 1.48 2.53 3.43 3.16 3.26 2.02 2.23 2.61 2.23 2.40 3.43 2.57
1.22 0.69 1.20 2.25 1.95 2.27 1.75 1.94 1.43 1.84 1.54 1.47 0.83 0.70 0.86 0.75 0.46 0.55 0.65 0.32 0.44 0.49 0.64 0.45 0.36 0.30 0.54 1.24 1.25 1.32 1.00 1.01 0.97 1.10 1.33 1.16 1.37 1.64 2.77 1.98 2.58 3.88 2.69 2.87 2.08 1.56 1.82 2.33 2.68
0.28 0.21 0.93 2.43 2.76 2.29 2.52 1.37 1.06 1.97 1.94 1.65 0.87 0.70 0.71 0.60 0.45 0.24 0.42 0.41 0.71 0.71 0.79 0.45 0.34 0.47 0.52 0.63 0.70 0.73 0.73 1.06 1.28 1.27 0.88 0.62 0.87 1.81 2.47 1.63 1.66 2.43 2.19 2.48 1.97 1.77 1.86 2.18 2.20
0.08 0.10 0.43 2.12 3.03 2.73 2.75 1.96 1.40 1.79 1.93 1.40 1.06 0.73 0.72 1.07 0.53 0.13 0.25 0.18 0.33 0.33 0.27 0.35 0.60 0.63 0.44 0.65 0.80 0.70 1.09 1.73 1.43 1.17 0.70 0.61 0.72 1.25 0.91 1.12 1.20 2.68 1.72 1.64 1.79 1.64 2.16 2.55 2.24
0.01 0.03 0.16 1.15 1.54 2.01 2.31 2.69 2.27 2.04 2.21 1.73 1.21 0.80 0.62 0.75 0.64 0.23 0.11 0.13 0.14 0.17 0.24 0.33 0.50 0.99 0.78 0.71 1.03 1.40 2.48 3.78 2.67 1.20 0.99 0.56 0.93 1.05 1.26 1.44 1.18 1.53 1.81 2.37 2.40 1.88 2.19 3.08 2.88
0.04 0.04 0.12 0.68 1.11 2.74 1.51 2.09 1.91 1.44 2.08 2.89 1.45 1.43 0.76 0.80 0.52 0.46 0.14 0.12 0.07 0.11 0.41 0.42 0.56 0.87 0.97 0.99 0.92 1.90 3.49 3.21 1.55 0.83 0.48 0.64 1.10 1.52 1.50 1.40 1.46 1.05 1.23 2.05 1.74 1.43 2.25 2.65 2.85
0.02 0.05 0.09 0.47 0.39 0.75 0.86 1.37 1.59 1.17 1.97 2.65 1.68 0.91 0.87 0.94 0.54 0.71 0.42 0.41 0.58 0.80 0.98 0.95 0.73 1.00 1.33 1.24 1.92 2.92 2.33 2.03 1.21 1.03 1.63 1.51 1.61 1.09 1.31 1.26 1.63 1.24 1.55 1.65 1.98 2.02 1.74 2.03 2.50
0.01 0.04 0.09 0.14 0.35 0.33 0.35 0.88 0.87 0.81 1.23 1.93 0.87 0.66 0.64 0.75 0.45 0.47 0.46 0.66 1.41 1.94 1.84 1.79 1.38 1.71 1.69 1.78 1.66 2.31 2.41 2.29 2.55 1.99 2.60 1.50 1.49 1.68 1.43 1.14 1.49 1.60 1.87 1.68 1.74 1.81 1.74 1.98 2.82
0.00 0.02 0.07 0.17 0.27 0.32 0.10 0.44 0.49 0.39 0.64 1.72 1.44 1.00 0.81 0.78 0.38 0.33 0.45 0.94 1.30 1.42 0.98 1.51 1.35 1.42 2.19 2.24 1.42 1.66 2.32 2.64 3.01 1.93 1.60 1.61 1.31 1.22 1.61 1.62 1.38 1.31 1.57 1.76 1.59 1.63 1.33 1.61 2.07
0.00 0.00 0.01 0.06 0.10 0.08 0.15 0.58 0.44 0.27 0.26 0.59 1.33 1.23 1.19 1.17 0.85 0.35 0.27 0.92 0.98 0.71 0.69 0.62 0.69 0.91 1.36 1.15 1.06 1.32 1.46 1.37 1.45 1.38 1.13 0.92 1.37 1.83 2.23 2.40 2.06 1.38 1.53 1.23 1.35 1.44 1.09 1.81 2.03
0.00 0.01 0.03 0.03 0.02 0.02 0.24 0.54 0.65 0.40 0.47 0.29 0.56 1.07 1.49 1.73 1.66 0.93 0.72 0.56 0.60 0.84 0.62 0.42 0.34 0.30 0.53 0.54 1.13 1.15 1.12 1.08 1.11 1.32 1.15 0.94 0.95 1.47 3.16 2.40 1.93 1.78 1.42 1.25 1.57 1.66 1.37 1.74 1.76
0.01 0.03 0.02 0.02 0.03 0.03 0.35 0.70 1.49 1.56 1.14 0.51 0.38 0.59 0.75 1.24 1.92 1.21 1.47 1.43 0.87 0.96 0.73 0.73 0.70 0.45 0.46 0.54 0.71 0.93 1.27 1.56 1.86 1.51 1.28 1.07 1.05 1.34 3.35 3.17 1.48 1.40 1.26 1.68 1.87 1.23 1.47 2.02 1.54
0.01 0.01 0.00 0.02 0.05 0.06 0.42 1.25 0.87 0.89 0.60 0.79 0.88 0.70 0.40 0.63 1.17 1.25 1.40 1.90 1.22 2.06 2.30 1.99 1.47 0.73 0.52 0.65 0.69 1.03 0.97 0.84 0.75 1.06 1.15 1.09 1.03 0.92 1.43 2.82 2.21 1.66 1.34 1.77 1.90 1.93 2.21 2.40 1.63
0.01 0.01 0.01 0.02 0.16 0.05 0.09 0.79 0.46 0.74 1.09 0.93 0.56 0.57 0.45 0.38 0.73 1.68 1.81 1.83 1.75 2.78 3.52 3.99 3.59 2.38 1.30 1.06 0.73 0.77 0.76 0.82 0.72 0.69 0.84 0.85 1.02 0.93 1.04 1.13 1.38 1.55 1.60 1.76 1.67 1.95 2.03 2.59 1.47